Time,TemperatureF,DewpointF,PressureIn,WindDirection,WindDirectionDegrees,WindSpeedMPH,WindSpeedGustMPH,Humidity,HourlyPrecipIn,Conditions,Clouds,dailyrainin,SoftwareType,DateUTC
2013-02-22 00:00:00,26.4,20.2,30.31,NNE,24,1.0,4.0,77,0.00,,---,0.00,VWS V14.01,2013-02-22 05:00:00,
2013-02-22 00:05:00,26.5,20.3,30.32,ENE,59,1.0,5.0,77,0.00,,---,0.00,VWS V14.01,2013-02-22 05:05:00,
2013-02-22 00:10:00,26.6,20.4,30.32,NE,39,2.0,5.0,77,0.00,,---,0.00,VWS V14.01,2013-02-22 05:10:00,
2013-02-22 00:15:00,26.7,20.5,30.32,NNE,21,1.0,5.0,77,0.00,,---,0.00,VWS V14.01,2013-02-22 05:15:00,
2013-02-22 00:20:00,26.7,20.5,30.33,ENE,59,3.0,5.0,77,0.00,,---,0.00,VWS V14.01,2013-02-22 05:20:00,
2013-02-22 00:25:00,26.7,20.5,30.33,NNW,331,0.0,5.0,77,0.00,,---,0.00,VWS V14.01,2013-02-22 05:25:00,
2013-02-22 00:30:00,26.8,20.6,30.33,NW,326,0.0,3.0,77,0.00,,---,0.00,VWS V14.01,2013-02-22 05:30:00,
2013-02-22 00:35:00,26.9,20.7,30.33,NE,55,0.0,3.0,77,0.00,,---,0.00,VWS V14.01,2013-02-22 05:35:00,
2013-02-22 00:40:00,26.9,20.7,30.32,NE,49,0.0,5.0,77,0.00,,---,0.00,VWS V14.01,2013-02-22 05:40:00,
2013-02-22 00:45:00,27.0,20.8,30.33,NW,323,0.0,5.0,77,0.00,,---,0.00,VWS V14.01,2013-02-22 05:45:00,
2013-02-22 00:50:00,27.0,20.8,30.33,North,355,1.0,8.0,77,0.00,,---,0.00,VWS V14.01,2013-02-22 05:50:00,
2013-02-22 00:55:00,27.0,20.8,30.33,NW,321,0.0,8.0,77,0.00,,---,0.00,VWS V14.01,2013-02-22 05:55:00,
2013-02-22 01:00:00,27.0,20.8,30.32,NW,309,0.0,0.0,77,0.00,,---,0.00,VWS V14.01,2013-02-22 06:00:00,
2013-02-22 01:05:00,27.0,20.8,30.32,NNE,21,5.0,7.0,77,0.00,,---,0.00,VWS V14.01,2013-02-22 06:05:00,
2013-02-22 01:10:00,27.0,20.8,30.32,NNE,17,2.0,7.0,77,0.00,,---,0.00,VWS V14.01,2013-02-22 06:10:00,
2013-02-22 01:15:00,27.1,20.9,30.32,NNE,15,3.0,7.0,77,0.00,,---,0.00,VWS V14.01,2013-02-22 06:15:00,
2013-02-22 01:20:00,27.1,20.9,30.32,North,360,0.0,7.0,77,0.00,,---,0.00,VWS V14.01,2013-02-22 06:20:00,
2013-02-22 01:25:00,27.2,21.0,30.32,North,355,1.0,7.0,77,0.00,,---,0.00,VWS V14.01,2013-02-22 06:25:00,
2013-02-22 01:30:00,27.2,21.0,30.32,ENE,67,3.0,5.0,77,0.00,,---,0.00,VWS V14.01,2013-02-22 06:30:00,
2013-02-22 01:35:00,27.2,21.0,30.32,NNE,27,0.0,5.0,77,0.00,,---,0.00,VWS V14.01,2013-02-22 06:35:00,
2013-02-22 01:40:00,27.3,21.1,30.32,NNW,340,4.0,5.0,77,0.00,,---,0.00,VWS V14.01,2013-02-22 06:40:00,
2013-02-22 01:45:00,27.4,21.1,30.32,North,351,2.0,5.0,77,0.00,,---,0.00,VWS V14.01,2013-02-22 06:45:00,
2013-02-22 01:50:00,27.5,21.2,30.32,NW,307,4.0,9.0,77,0.00,,---,0.00,VWS V14.01,2013-02-22 06:50:00,
2013-02-22 01:55:00,27.6,21.4,30.32,NW,313,2.0,10.0,77,0.00,,---,0.00,VWS V14.01,2013-02-22 06:55:00,
2013-02-22 02:00:00,27.7,21.4,30.32,NNE,16,3.0,3.0,77,0.00,,---,0.00,VWS V14.01,2013-02-22 07:00:00,
2013-02-22 02:05:00,27.7,21.1,30.32,NNE,13,0.0,3.0,76,0.00,,---,0.00,VWS V14.01,2013-02-22 07:05:00,
2013-02-22 02:10:00,27.7,21.4,30.32,NE,46,1.0,4.0,77,0.00,,---,0.00,VWS V14.01,2013-02-22 07:10:00,
2013-02-22 02:15:00,27.7,21.4,30.32,NW,318,5.0,5.0,77,0.00,,---,0.00,VWS V14.01,2013-02-22 07:15:00,
2013-02-22 02:20:00,27.8,21.2,30.32,West,261,2.0,6.0,76,0.00,,---,0.00,VWS V14.01,2013-02-22 07:20:00,
2013-02-22 02:25:00,27.8,21.5,30.32,NW,311,0.0,6.0,77,0.00,,---,0.00,VWS V14.01,2013-02-22 07:25:00,
2013-02-22 02:30:00,27.8,21.5,30.32,North,5,0.0,3.0,77,0.00,,---,0.00,VWS V14.01,2013-02-22 07:30:00,
2013-02-22 02:35:00,27.8,21.5,30.32,NNW,329,0.0,3.0,77,0.00,,---,0.00,VWS V14.01,2013-02-22 07:35:00,
2013-02-22 02:40:00,27.8,21.5,30.32,NNW,329,0.0,3.0,77,0.00,,---,0.00,VWS V14.01,2013-02-22 07:40:00,
2013-02-22 02:45:00,27.8,21.5,30.32,NW,308,1.0,4.0,77,0.00,,---,0.00,VWS V14.01,2013-02-22 07:45:00,
2013-02-22 02:50:00,27.8,21.5,30.32,North,350,2.0,4.0,77,0.00,,---,0.00,VWS V14.01,2013-02-22 07:50:00,
2013-02-22 02:55:00,27.8,21.5,30.32,North,5,1.0,5.0,77,0.00,,---,0.00,VWS V14.01,2013-02-22 07:55:00,
2013-02-22 03:00:00,27.9,21.6,30.33,NNW,329,2.0,3.0,77,0.00,,---,0.00,VWS V14.01,2013-02-22 08:00:00,
2013-02-22 03:05:00,27.9,21.6,30.32,NNW,331,2.0,7.0,77,0.00,,---,0.00,VWS V14.01,2013-02-22 08:05:00,
2013-02-22 03:10:00,28.0,21.7,30.32,North,355,1.0,7.0,77,0.00,,---,0.00,VWS V14.01,2013-02-22 08:10:00,
2013-02-22 03:15:00,27.9,21.6,30.32,NNW,343,1.0,7.0,77,0.00,,---,0.00,VWS V14.01,2013-02-22 08:15:00,
2013-02-22 03:20:00,27.9,21.6,30.32,NNW,345,1.0,7.0,77,0.00,,---,0.00,VWS V14.01,2013-02-22 08:20:00,
2013-02-22 03:25:00,27.9,21.6,30.32,North,5,2.0,7.0,77,0.00,,---,0.00,VWS V14.01,2013-02-22 08:25:00,
2013-02-22 03:30:00,27.9,21.6,30.32,North,355,0.0,1.0,77,0.00,,---,0.00,VWS V14.01,2013-02-22 08:30:00,
2013-02-22 03:35:00,27.8,21.5,30.32,NNW,337,1.0,3.0,77,0.00,,---,0.00,VWS V14.01,2013-02-22 08:35:00,
2013-02-22 03:40:00,27.8,21.5,30.32,North,355,0.0,6.0,77,0.00,,---,0.00,VWS V14.01,2013-02-22 08:40:00,
2013-02-22 03:45:00,27.7,21.4,30.32,NNW,346,0.0,6.0,77,0.00,,---,0.00,VWS V14.01,2013-02-22 08:45:00,
2013-02-22 03:50:00,27.6,21.4,30.32,East,84,1.0,6.0,77,0.00,,---,0.00,VWS V14.01,2013-02-22 08:50:00,
2013-02-22 03:55:00,27.6,21.4,30.31,NNE,33,1.0,7.0,77,0.00,,---,0.00,VWS V14.01,2013-02-22 08:55:00,
2013-02-22 04:00:00,27.6,21.4,30.31,NE,38,4.0,5.0,77,0.00,,---,0.00,VWS V14.01,2013-02-22 09:00:00,
2013-02-22 04:05:00,27.5,21.2,30.31,NE,46,2.0,5.0,77,0.00,,---,0.00,VWS V14.01,2013-02-22 09:05:00,
2013-02-22 04:10:00,27.4,21.1,30.31,ENE,59,1.0,5.0,77,0.00,,---,0.00,VWS V14.01,2013-02-22 09:10:00,
2013-02-22 04:15:00,27.2,21.0,30.31,East,79,2.0,5.0,77,0.00,,---,0.00,VWS V14.01,2013-02-22 09:15:00,
2013-02-22 04:20:00,27.1,20.9,30.31,ENE,57,1.0,5.0,77,0.00,,---,0.00,VWS V14.01,2013-02-22 09:20:00,
2013-02-22 04:25:00,27.0,21.1,30.32,ENE,58,0.0,5.0,78,0.00,,---,0.00,VWS V14.01,2013-02-22 09:25:00,
2013-02-22 04:30:00,26.9,21.0,30.32,NE,46,0.0,1.0,78,0.00,,---,0.00,VWS V14.01,2013-02-22 09:30:00,
2013-02-22 04:35:00,26.8,20.6,30.32,NW,314,0.0,2.0,77,0.00,,---,0.00,VWS V14.01,2013-02-22 09:35:00,
2013-02-22 04:40:00,26.7,20.8,30.33,ENE,61,0.0,2.0,78,0.00,,---,0.00,VWS V14.01,2013-02-22 09:40:00,
2013-02-22 04:45:00,26.6,20.7,30.32,ENE,60,0.0,2.0,78,0.00,,---,0.00,VWS V14.01,2013-02-22 09:45:00,
2013-02-22 04:50:00,26.5,20.9,30.33,NW,305,0.0,3.0,79,0.00,,---,0.00,VWS V14.01,2013-02-22 09:50:00,
2013-02-22 04:55:00,26.5,20.9,30.33,NE,40,0.0,3.0,79,0.00,,---,0.00,VWS V14.01,2013-02-22 09:55:00,
2013-02-22 05:00:00,26.5,20.9,30.33,NE,49,0.0,3.0,79,0.00,,---,0.00,VWS V14.01,2013-02-22 10:00:00,
2013-02-22 05:05:00,26.6,21.0,30.33,ENE,63,0.0,6.0,79,0.00,,---,0.00,VWS V14.01,2013-02-22 10:05:00,
2013-02-22 05:10:00,26.7,21.1,30.33,NW,311,1.0,6.0,79,0.00,,---,0.00,VWS V14.01,2013-02-22 10:10:00,
2013-02-22 05:15:00,26.7,21.1,30.34,NE,44,0.0,6.0,79,0.00,,---,0.00,VWS V14.01,2013-02-22 10:15:00,
2013-02-22 05:21:00,26.7,21.1,30.34,NNE,31,1.0,6.0,79,0.00,,---,0.00,VWS V14.01,2013-02-22 10:21:00,
2013-02-22 05:25:00,26.7,21.1,30.35,NNE,30,0.0,6.0,79,0.00,,---,0.00,VWS V14.01,2013-02-22 10:25:00,
2013-02-22 05:31:00,26.7,20.8,30.35,NNW,329,0.0,0.0,78,0.00,,---,0.00,VWS V14.01,2013-02-22 10:31:00,
2013-02-22 05:36:00,26.7,20.8,30.37,NNW,329,0.0,2.0,78,0.00,,---,0.00,VWS V14.01,2013-02-22 10:36:00,
2013-02-22 05:41:00,26.6,21.0,30.37,NNW,329,0.0,2.0,79,0.00,,---,0.00,VWS V14.01,2013-02-22 10:41:00,
2013-02-22 05:46:00,26.5,20.9,30.37,NNW,329,0.0,2.0,79,0.00,,---,0.00,VWS V14.01,2013-02-22 10:46:00,
2013-02-22 05:51:00,26.3,20.7,30.37,NNW,329,0.0,2.0,79,0.00,,---,0.00,VWS V14.01,2013-02-22 10:51:00,
2013-02-22 05:56:00,26.1,20.8,30.37,NNW,329,0.0,2.0,80,0.00,,---,0.00,VWS V14.01,2013-02-22 10:56:00,
2013-02-22 06:01:00,26.0,21.0,30.37,NNW,329,0.0,0.0,81,0.00,,---,0.00,VWS V14.01,2013-02-22 11:01:00,
2013-02-22 06:06:00,25.8,20.8,30.38,NNW,329,0.0,0.0,81,0.00,,---,0.00,VWS V14.01,2013-02-22 11:06:00,
2013-02-22 06:11:00,25.7,20.7,30.39,NNW,329,0.0,1.0,81,0.00,,---,0.00,VWS V14.01,2013-02-22 11:11:00,
2013-02-22 06:16:00,25.7,20.7,30.39,NNW,329,0.0,1.0,81,0.00,,---,0.00,VWS V14.01,2013-02-22 11:16:00,
2013-02-22 06:21:00,25.6,20.9,30.39,NNW,329,0.0,2.0,82,0.00,,---,0.00,VWS V14.01,2013-02-22 11:21:00,
2013-02-22 06:26:00,25.4,20.7,30.39,NNW,329,0.0,2.0,82,0.00,,---,0.00,VWS V14.01,2013-02-22 11:26:00,
2013-02-22 06:31:00,25.2,20.5,30.39,NNW,340,0.0,1.0,82,0.00,,---,0.00,VWS V14.01,2013-02-22 11:31:00,
2013-02-22 06:36:00,25.1,20.4,30.39,North,349,0.0,2.0,82,0.00,,---,0.00,VWS V14.01,2013-02-22 11:36:00,
2013-02-22 06:41:00,24.9,20.2,30.39,North,350,0.0,2.0,82,0.00,,---,0.00,VWS V14.01,2013-02-22 11:41:00,
2013-02-22 06:46:00,24.8,20.4,30.40,North,350,0.0,2.0,83,0.00,,---,0.00,VWS V14.01,2013-02-22 11:46:00,
2013-02-22 06:51:00,24.7,20.3,30.40,North,350,0.0,2.0,83,0.00,,---,0.00,VWS V14.01,2013-02-22 11:51:00,
2013-02-22 06:56:00,24.6,20.2,30.40,NNE,18,0.0,2.0,83,0.00,,---,0.00,VWS V14.01,2013-02-22 11:56:00,
2013-02-22 07:01:00,24.4,20.0,30.41,NNE,18,0.0,0.0,83,0.00,,---,0.00,VWS V14.01,2013-02-22 12:01:00,
2013-02-22 07:06:00,24.3,20.2,30.40,NNE,18,0.0,0.0,84,0.00,,---,0.00,VWS V14.01,2013-02-22 12:06:00,
2013-02-22 07:11:00,24.3,20.2,30.41,NNE,18,0.0,0.0,84,0.00,,---,0.00,VWS V14.01,2013-02-22 12:11:00,
2013-02-22 07:16:00,24.2,20.1,30.41,NNE,18,1.0,2.0,84,0.00,,---,0.00,VWS V14.01,2013-02-22 12:16:00,
2013-02-22 07:21:00,24.0,19.9,30.40,NNE,18,0.0,2.0,84,0.00,,---,0.00,VWS V14.01,2013-02-22 12:21:00,
2013-02-22 07:26:00,24.0,19.9,30.41,NNE,18,0.0,2.0,84,0.00,,---,0.00,VWS V14.01,2013-02-22 12:26:00,
2013-02-22 07:31:00,23.9,19.8,30.41,NNE,18,0.0,0.0,84,0.00,,---,0.00,VWS V14.01,2013-02-22 12:31:00,
2013-02-22 07:36:00,23.9,19.8,30.40,NNE,18,0.0,0.0,84,0.00,,---,0.00,VWS V14.01,2013-02-22 12:36:00,
2013-02-22 07:41:00,23.8,20.0,30.40,NE,34,1.0,2.0,85,0.00,,---,0.00,VWS V14.01,2013-02-22 12:41:00,
2013-02-22 07:46:00,23.6,19.8,30.41,NE,34,0.0,2.0,85,0.00,,---,0.00,VWS V14.01,2013-02-22 12:46:00,
2013-02-22 07:51:00,23.6,19.8,30.41,NE,34,0.0,2.0,85,0.00,,---,0.00,VWS V14.01,2013-02-22 12:51:00,
2013-02-22 07:56:00,23.6,19.8,30.41,NE,51,0.0,2.0,85,0.00,,---,0.00,VWS V14.01,2013-02-22 12:56:00,
2013-02-22 08:01:00,23.9,20.1,30.41,NE,51,0.0,3.0,85,0.00,,---,0.00,VWS V14.01,2013-02-22 13:01:00,
2013-02-22 08:06:00,24.3,20.5,30.40,ENE,59,0.0,3.0,85,0.00,,---,0.00,VWS V14.01,2013-02-22 13:06:00,
2013-02-22 08:11:00,24.7,20.6,30.41,ENE,63,0.0,3.0,84,0.00,,---,0.00,VWS V14.01,2013-02-22 13:11:00,
2013-02-22 08:16:00,25.3,20.9,30.41,NE,55,0.0,4.0,83,0.00,,---,0.00,VWS V14.01,2013-02-22 13:16:00,
2013-02-22 08:21:00,25.7,21.0,30.41,ENE,72,0.0,4.0,82,0.00,,---,0.00,VWS V14.01,2013-02-22 13:21:00,
2013-02-22 08:26:00,26.1,21.4,30.41,NNE,24,2.0,4.0,82,0.00,,---,0.00,VWS V14.01,2013-02-22 13:26:00,
2013-02-22 08:31:00,26.5,21.5,30.41,NNW,347,1.0,2.0,81,0.00,,---,0.00,VWS V14.01,2013-02-22 13:31:00,
2013-02-22 08:36:00,27.0,22.0,30.41,NW,317,0.0,4.0,81,0.00,,---,0.00,VWS V14.01,2013-02-22 13:36:00,
2013-02-22 08:41:00,27.5,22.1,30.41,NNW,327,2.0,4.0,80,0.00,,---,0.00,VWS V14.01,2013-02-22 13:41:00,
2013-02-22 08:46:00,28.0,22.3,30.41,NW,325,0.0,4.0,79,0.00,,---,0.00,VWS V14.01,2013-02-22 13:46:00,
2013-02-22 08:51:00,28.7,22.7,30.41,WNW,300,3.0,5.0,78,0.00,,---,0.00,VWS V14.01,2013-02-22 13:51:00,
2013-02-22 08:56:00,29.3,22.7,30.41,NW,308,2.0,6.0,76,0.00,,---,0.00,VWS V14.01,2013-02-22 13:56:00,
2013-02-22 09:01:00,30.1,22.8,30.41,NNW,337,0.0,6.0,74,0.00,,---,0.00,VWS V14.01,2013-02-22 14:01:00,
2013-02-22 09:06:00,30.9,23.3,30.41,NW,321,4.0,6.0,73,0.00,,---,0.00,VWS V14.01,2013-02-22 14:06:00,
2013-02-22 09:11:00,31.5,23.2,30.41,NE,38,2.0,6.0,71,0.00,,---,0.00,VWS V14.01,2013-02-22 14:11:00,
2013-02-22 09:16:00,31.7,23.0,30.41,NNW,347,3.0,7.0,70,0.00,,---,0.00,VWS V14.01,2013-02-22 14:16:00,
2013-02-22 09:21:00,32.4,23.7,30.41,NW,323,3.0,7.0,70,0.00,,---,0.00,VWS V14.01,2013-02-22 14:21:00,
2013-02-22 09:26:00,32.9,23.5,30.41,North,5,1.0,7.0,68,0.00,,---,0.00,VWS V14.01,2013-02-22 14:26:00,
2013-02-22 09:31:00,32.6,22.9,30.41,NNE,27,0.0,6.0,67,0.00,,---,0.00,VWS V14.01,2013-02-22 14:31:00,
2013-02-22 09:36:00,32.2,22.8,30.41,NE,56,4.0,6.0,68,0.00,,---,0.00,VWS V14.01,2013-02-22 14:36:00,
2013-02-22 09:41:00,31.9,22.5,30.41,NE,56,2.0,8.0,68,0.00,,---,0.00,VWS V14.01,2013-02-22 14:41:00,
2013-02-22 09:46:00,31.7,22.7,30.41,NE,50,5.0,8.0,69,0.00,,---,0.00,VWS V14.01,2013-02-22 14:46:00,
2013-02-22 09:51:00,31.6,22.6,30.41,ENE,63,3.0,8.0,69,0.00,,---,0.00,VWS V14.01,2013-02-22 14:51:00,
2013-02-22 09:57:00,31.6,22.6,30.41,ENE,63,2.0,8.0,69,0.00,,---,0.00,VWS V14.01,2013-02-22 14:57:00,
2013-02-22 10:01:00,31.6,23.0,30.40,NE,53,2.0,4.0,70,0.00,,---,0.00,VWS V14.01,2013-02-22 15:01:00,
2013-02-22 10:07:00,31.7,22.7,30.40,NE,45,1.0,5.0,69,0.00,,---,0.00,VWS V14.01,2013-02-22 15:07:00,
2013-02-22 10:12:00,31.8,22.5,30.40,ENE,76,4.0,8.0,68,0.00,,---,0.00,VWS V14.01,2013-02-22 15:12:00,
2013-02-22 10:16:00,31.7,22.4,30.40,NE,53,1.0,8.0,68,0.00,,---,0.00,VWS V14.01,2013-02-22 15:16:00,
2013-02-22 10:21:00,31.8,22.8,30.39,NE,45,1.0,8.0,69,0.00,,---,0.00,VWS V14.01,2013-02-22 15:21:00,
2013-02-22 10:26:00,32.1,23.1,30.40,NE,55,3.0,8.0,69,0.00,,---,0.00,VWS V14.01,2013-02-22 15:26:00,
2013-02-22 10:31:00,32.1,23.1,30.40,ENE,65,1.0,5.0,69,0.00,,---,0.00,VWS V14.01,2013-02-22 15:31:00,
2013-02-22 10:36:00,32.1,23.1,30.39,ENE,71,4.0,5.0,69,0.00,,---,0.00,VWS V14.01,2013-02-22 15:36:00,
2013-02-22 10:42:00,32.3,22.9,30.38,East,88,3.0,7.0,68,0.00,,---,0.00,VWS V14.01,2013-02-22 15:42:00,
2013-02-22 10:47:00,32.3,22.9,30.38,ENE,69,0.0,7.0,68,0.00,,---,0.00,VWS V14.01,2013-02-22 15:47:00,
2013-02-22 10:52:00,32.5,22.8,30.38,ENE,61,0.0,7.0,67,0.00,,---,0.00,VWS V14.01,2013-02-22 15:52:00,
2013-02-22 10:57:00,32.8,23.1,30.38,NE,54,2.0,7.0,67,0.00,,---,0.00,VWS V14.01,2013-02-22 15:57:00,
2013-02-22 11:02:00,33.0,22.9,30.37,ENE,67,1.0,3.0,66,0.00,,---,0.00,VWS V14.01,2013-02-22 16:02:00,
2013-02-22 11:07:00,33.2,23.5,30.37,NE,42,2.0,4.0,67,0.00,,---,0.00,VWS V14.01,2013-02-22 16:07:00,
2013-02-22 11:12:00,33.5,23.4,30.37,NE,50,2.0,4.0,66,0.00,,---,0.00,VWS V14.01,2013-02-22 16:12:00,
2013-02-22 11:17:00,33.7,23.2,30.36,NNE,22,2.0,6.0,65,0.00,,---,0.00,VWS V14.01,2013-02-22 16:17:00,
2013-02-22 11:22:00,34.0,22.7,30.36,NNE,32,1.0,6.0,63,0.00,,---,0.00,VWS V14.01,2013-02-22 16:22:00,
2013-02-22 11:27:00,34.1,22.5,30.36,NNE,16,0.0,6.0,62,0.00,,---,0.00,VWS V14.01,2013-02-22 16:27:00,
2013-02-22 11:32:00,34.4,23.1,30.36,NW,325,2.0,6.0,63,0.00,,---,0.00,VWS V14.01,2013-02-22 16:32:00,
2013-02-22 11:37:00,34.8,23.5,30.36,NE,48,2.0,6.0,63,0.00,,---,0.00,VWS V14.01,2013-02-22 16:37:00,
2013-02-22 11:42:00,35.0,22.9,30.36,NNE,20,1.0,6.0,61,0.00,,---,0.00,VWS V14.01,2013-02-22 16:42:00,
2013-02-22 11:47:00,35.4,23.3,30.36,ENE,72,3.0,6.0,61,0.00,,---,0.00,VWS V14.01,2013-02-22 16:47:00,
2013-02-22 11:52:00,35.6,23.5,30.36,WNW,284,3.0,6.0,61,0.00,,---,0.00,VWS V14.01,2013-02-22 16:52:00,
2013-02-22 11:57:00,36.0,23.5,30.36,North,5,0.0,6.0,60,0.00,,---,0.00,VWS V14.01,2013-02-22 16:57:00,
2013-02-22 12:02:00,36.3,23.8,30.36,West,279,2.0,4.0,60,0.00,,---,0.00,VWS V14.01,2013-02-22 17:02:00,
2013-02-22 12:07:00,36.9,24.3,30.36,NNW,331,2.0,4.0,60,0.00,,---,0.00,VWS V14.01,2013-02-22 17:07:00,
2013-02-22 12:12:00,37.9,25.3,30.35,NNW,329,1.0,4.0,60,0.00,,---,0.00,VWS V14.01,2013-02-22 17:12:00,
2013-02-22 12:17:00,38.7,23.9,30.35,WNW,284,0.0,4.0,55,0.00,,---,0.00,VWS V14.01,2013-02-22 17:17:00,
2013-02-22 12:22:00,39.5,24.7,30.35,NW,315,2.0,4.0,55,0.00,,---,0.00,VWS V14.01,2013-02-22 17:22:00,
2013-02-22 12:27:00,40.5,24.7,30.35,West,267,0.0,4.0,53,0.00,,---,0.00,VWS V14.01,2013-02-22 17:27:00,
2013-02-22 12:32:00,41.3,25.5,30.35,NNW,348,0.0,4.0,53,0.00,,---,0.00,VWS V14.01,2013-02-22 17:32:00,
2013-02-22 12:37:00,41.8,25.0,30.35,NW,314,2.0,4.0,51,0.00,,---,0.00,VWS V14.01,2013-02-22 17:37:00,
2013-02-22 12:42:00,41.8,24.1,30.35,NW,311,0.0,4.0,49,0.00,,---,0.00,VWS V14.01,2013-02-22 17:42:00,
2013-02-22 12:47:00,41.7,24.9,30.35,NW,311,0.0,4.0,51,0.00,,---,0.00,VWS V14.01,2013-02-22 17:47:00,
2013-02-22 12:52:00,41.6,25.8,30.35,NW,311,0.0,4.0,53,0.00,,---,0.00,VWS V14.01,2013-02-22 17:52:00,
2013-02-22 12:57:00,41.4,26.0,30.35,NW,311,0.0,4.0,54,0.00,,---,0.00,VWS V14.01,2013-02-22 17:57:00,
2013-02-22 13:02:00,41.4,25.1,30.34,WNW,292,1.0,3.0,52,0.00,,---,0.00,VWS V14.01,2013-02-22 18:02:00,
2013-02-22 13:07:00,41.6,25.8,30.34,NW,315,1.0,3.0,53,0.00,,---,0.00,VWS V14.01,2013-02-22 18:07:00,
2013-02-22 13:12:00,41.6,23.4,30.34,NW,315,0.0,3.0,48,0.00,,---,0.00,VWS V14.01,2013-02-22 18:12:00,
2013-02-22 13:17:00,41.6,23.9,30.34,NW,315,0.0,3.0,49,0.00,,---,0.00,VWS V14.01,2013-02-22 18:17:00,
2013-02-22 13:22:00,42.0,24.7,30.34,WNW,285,1.0,3.0,50,0.00,,---,0.00,VWS V14.01,2013-02-22 18:22:00,
2013-02-22 13:27:00,41.7,23.5,30.33,WNW,300,1.0,3.0,48,0.00,,---,0.00,VWS V14.01,2013-02-22 18:27:00,
2013-02-22 13:32:00,42.0,24.7,30.33,NW,309,0.0,1.0,50,0.00,,---,0.00,VWS V14.01,2013-02-22 18:32:00,
2013-02-22 13:37:00,42.2,23.4,30.33,WNW,283,0.0,3.0,47,0.00,,---,0.00,VWS V14.01,2013-02-22 18:37:00,
2013-02-22 13:42:00,42.0,22.7,30.33,SSW,212,1.0,3.0,46,0.00,,---,0.00,VWS V14.01,2013-02-22 18:42:00,
2013-02-22 13:47:00,41.2,21.5,30.32,ESE,112,0.0,3.0,45,0.00,,---,0.00,VWS V14.01,2013-02-22 18:47:00,
2013-02-22 13:52:00,41.4,22.7,30.32,ESE,121,0.0,3.0,47,0.00,,---,0.00,VWS V14.01,2013-02-22 18:52:00,
2013-02-22 13:57:00,41.6,21.9,30.32,SE,134,1.0,3.0,45,0.00,,---,0.00,VWS V14.01,2013-02-22 18:57:00,
2013-02-22 14:02:00,41.4,21.7,30.32,ESE,121,0.0,4.0,45,0.00,,---,0.00,VWS V14.01,2013-02-22 19:02:00,
2013-02-22 14:07:00,41.4,23.2,30.31,ESE,121,0.0,4.0,48,0.00,,---,0.00,VWS V14.01,2013-02-22 19:07:00,
2013-02-22 14:12:00,41.5,23.8,30.32,SE,129,0.0,4.0,49,0.00,,---,0.00,VWS V14.01,2013-02-22 19:12:00,
2013-02-22 14:17:00,41.4,23.2,30.32,SE,129,0.0,4.0,48,0.00,,---,0.00,VWS V14.01,2013-02-22 19:17:00,
2013-02-22 14:22:00,41.5,23.8,30.32,SE,129,0.0,4.0,49,0.00,,---,0.00,VWS V14.01,2013-02-22 19:22:00,
2013-02-22 14:27:00,41.6,23.9,30.32,SE,129,0.0,4.0,49,0.00,,---,0.00,VWS V14.01,2013-02-22 19:27:00,
2013-02-22 14:32:00,41.9,23.7,30.32,SE,129,0.0,2.0,48,0.00,,---,0.00,VWS V14.01,2013-02-22 19:32:00,
2013-02-22 14:37:00,42.2,24.4,30.32,SE,129,0.0,2.0,49,0.00,,---,0.00,VWS V14.01,2013-02-22 19:37:00,
2013-02-22 14:42:00,42.6,23.3,30.32,SE,134,2.0,2.0,46,0.00,,---,0.00,VWS V14.01,2013-02-22 19:42:00,
2013-02-22 14:47:00,42.8,22.4,30.32,SE,134,0.0,2.0,44,0.00,,---,0.00,VWS V14.01,2013-02-22 19:47:00,
2013-02-22 14:52:00,42.9,23.6,30.32,SE,134,0.0,2.0,46,0.00,,---,0.00,VWS V14.01,2013-02-22 19:52:00,
2013-02-22 14:57:00,43.0,24.2,30.32,SE,134,0.0,2.0,47,0.00,,---,0.00,VWS V14.01,2013-02-22 19:57:00,
2013-02-22 15:02:00,43.0,25.2,30.32,SE,134,0.0,1.0,49,0.00,,---,0.00,VWS V14.01,2013-02-22 20:02:00,
2013-02-22 15:07:00,42.8,25.0,30.32,SE,134,0.0,1.0,49,0.00,,---,0.00,VWS V14.01,2013-02-22 20:07:00,
2013-02-22 15:12:00,42.7,24.9,30.32,SE,134,0.0,1.0,49,0.00,,---,0.00,VWS V14.01,2013-02-22 20:12:00,
2013-02-22 15:17:00,42.5,23.7,30.32,SE,134,0.0,1.0,47,0.00,,---,0.00,VWS V14.01,2013-02-22 20:17:00,
2013-02-22 15:22:00,42.2,23.4,30.32,SE,134,0.0,1.0,47,0.00,,---,0.00,VWS V14.01,2013-02-22 20:22:00,
2013-02-22 15:27:00,42.0,21.7,30.31,SE,134,0.0,1.0,44,0.00,,---,0.00,VWS V14.01,2013-02-22 20:27:00,
2013-02-22 15:32:00,41.6,22.4,30.31,SE,134,0.0,0.0,46,0.00,,---,0.00,VWS V14.01,2013-02-22 20:32:00,
2013-02-22 15:37:00,41.3,22.1,30.31,SE,134,0.0,1.0,46,0.00,,---,0.00,VWS V14.01,2013-02-22 20:37:00,
2013-02-22 15:42:00,41.0,22.8,30.30,SE,134,0.0,1.0,48,0.00,,---,0.00,VWS V14.01,2013-02-22 20:42:00,
2013-02-22 15:47:00,40.8,22.6,30.30,SE,134,0.0,1.0,48,0.00,,---,0.00,VWS V14.01,2013-02-22 20:47:00,
2013-02-22 15:52:00,40.7,22.5,30.30,SE,134,0.0,1.0,48,0.00,,---,0.00,VWS V14.01,2013-02-22 20:52:00,
2013-02-22 15:57:00,40.7,22.1,30.29,SE,134,0.0,1.0,47,0.00,,---,0.00,VWS V14.01,2013-02-22 20:57:00,
2013-02-22 16:02:00,40.5,22.4,30.28,SE,134,0.0,1.0,48,0.00,,---,0.00,VWS V14.01,2013-02-22 21:02:00,
2013-02-22 16:07:00,40.3,21.7,30.29,SE,134,0.0,1.0,47,0.00,,---,0.00,VWS V14.01,2013-02-22 21:07:00,
2013-02-22 16:12:00,40.2,21.6,30.29,SE,134,0.0,1.0,47,0.00,,---,0.00,VWS V14.01,2013-02-22 21:12:00,
2013-02-22 16:17:00,40.1,22.5,30.29,SE,134,0.0,1.0,49,0.00,,---,0.00,VWS V14.01,2013-02-22 21:17:00,
2013-02-22 16:22:00,40.0,22.9,30.29,SE,134,0.0,1.0,50,0.00,,---,0.00,VWS V14.01,2013-02-22 21:22:00,
2013-02-22 16:27:00,39.9,23.3,30.29,SE,134,0.0,1.0,51,0.00,,---,0.00,VWS V14.01,2013-02-22 21:27:00,
2013-02-22 16:32:00,39.8,24.1,30.29,SE,134,0.0,0.0,53,0.00,,---,0.00,VWS V14.01,2013-02-22 21:32:00,
2013-02-22 16:37:00,39.7,24.0,30.29,SE,134,0.0,0.0,53,0.00,,---,0.00,VWS V14.01,2013-02-22 21:37:00,
2013-02-22 16:42:00,39.5,24.2,30.29,SE,134,0.0,0.0,54,0.00,,---,0.00,VWS V14.01,2013-02-22 21:42:00,
2013-02-22 16:47:00,39.4,23.7,30.28,SE,134,0.0,0.0,53,0.00,,---,0.00,VWS V14.01,2013-02-22 21:47:00,
2013-02-22 16:52:00,39.2,24.0,30.28,SE,134,0.0,0.0,54,0.00,,---,0.00,VWS V14.01,2013-02-22 21:52:00,
2013-02-22 16:57:00,39.0,23.8,30.28,SE,134,0.0,0.0,54,0.00,,---,0.00,VWS V14.01,2013-02-22 21:57:00,
2013-02-22 17:03:00,38.6,22.5,30.28,SE,134,0.0,0.0,52,0.00,,---,0.00,VWS V14.01,2013-02-22 22:03:00,
2013-02-22 17:07:00,38.3,24.4,30.28,SE,134,0.0,0.0,57,0.00,,---,0.00,VWS V14.01,2013-02-22 22:07:00,
2013-02-22 17:12:00,38.0,23.3,30.29,SE,134,0.0,0.0,55,0.00,,---,0.00,VWS V14.01,2013-02-22 22:12:00,
2013-02-22 17:18:00,37.7,23.4,30.29,SE,134,0.0,0.0,56,0.00,,---,0.00,VWS V14.01,2013-02-22 22:18:00,
2013-02-22 17:23:00,37.3,25.1,30.28,SE,134,0.0,0.0,61,0.00,,---,0.00,VWS V14.01,2013-02-22 22:23:00,
2013-02-22 17:28:00,36.9,25.1,30.29,SE,134,0.0,0.0,62,0.00,,---,0.00,VWS V14.01,2013-02-22 22:28:00,
2013-02-22 17:32:00,36.6,24.8,30.29,SE,134,0.0,0.0,62,0.00,,---,0.00,VWS V14.01,2013-02-22 22:32:00,
2013-02-22 17:38:00,36.2,23.3,30.29,SE,134,0.0,0.0,59,0.00,,---,0.00,VWS V14.01,2013-02-22 22:38:00,
2013-02-22 17:43:00,35.7,24.0,30.29,SE,134,0.0,1.0,62,0.00,,---,0.00,VWS V14.01,2013-02-22 22:43:00,
2013-02-22 17:48:00,35.2,25.0,30.29,SE,134,0.0,1.0,66,0.00,,---,0.00,VWS V14.01,2013-02-22 22:48:00,
2013-02-22 17:52:00,34.7,23.8,30.29,SE,134,0.0,1.0,64,0.00,,---,0.00,VWS V14.01,2013-02-22 22:52:00,
2013-02-22 17:58:00,34.2,23.7,30.29,SE,134,0.0,1.0,65,0.00,,---,0.00,VWS V14.01,2013-02-22 22:58:00,
2013-02-22 18:03:00,33.7,23.9,30.29,SE,134,0.0,0.0,67,0.00,,---,0.00,VWS V14.01,2013-02-22 23:03:00,
2013-02-22 18:08:00,33.4,24.3,30.29,SE,134,0.0,0.0,69,0.00,,---,0.00,VWS V14.01,2013-02-22 23:08:00,
2013-02-22 18:13:00,33.3,24.2,30.30,SE,134,0.0,0.0,69,0.00,,---,0.00,VWS V14.01,2013-02-22 23:13:00,
2013-02-22 18:18:00,33.2,23.8,30.31,SE,134,0.0,0.0,68,0.00,,---,0.00,VWS V14.01,2013-02-22 23:18:00,
2013-02-22 18:23:00,32.8,23.8,30.30,SE,134,0.0,1.0,69,0.00,,---,0.00,VWS V14.01,2013-02-22 23:23:00,
2013-02-22 18:28:00,32.5,23.1,30.30,SE,134,0.0,1.0,68,0.00,,---,0.00,VWS V14.01,2013-02-22 23:28:00,
2013-02-22 18:33:00,32.1,23.1,30.30,SE,134,0.0,0.0,69,0.00,,---,0.00,VWS V14.01,2013-02-22 23:33:00,
2013-02-22 18:38:00,32.0,23.0,30.30,SE,134,0.0,0.0,69,0.00,,---,0.00,VWS V14.01,2013-02-22 23:38:00,
2013-02-22 18:43:00,31.9,22.9,30.30,SE,134,0.0,0.0,69,0.00,,---,0.00,VWS V14.01,2013-02-22 23:43:00,
2013-02-22 18:48:00,31.7,22.4,30.30,SE,134,0.0,0.0,68,0.00,,---,0.00,VWS V14.01,2013-02-22 23:48:00,
2013-02-22 18:53:00,31.4,23.1,30.30,SE,134,0.0,0.0,71,0.00,,---,0.00,VWS V14.01,2013-02-22 23:53:00,
2013-02-22 18:58:00,31.1,23.5,30.29,SE,134,0.0,1.0,73,0.00,,---,0.00,VWS V14.01,2013-02-22 23:58:00,
2013-02-22 19:03:00,31.0,23.7,30.29,SE,134,0.0,1.0,74,0.00,,---,0.00,VWS V14.01,2013-02-23 00:03:00,
2013-02-22 19:08:00,30.9,23.9,30.30,SE,134,0.0,1.0,75,0.00,,---,0.00,VWS V14.01,2013-02-23 00:08:00,
2013-02-22 19:13:00,30.8,23.5,30.29,SE,134,0.0,1.0,74,0.00,,---,0.00,VWS V14.01,2013-02-23 00:13:00,
2013-02-22 19:18:00,30.8,23.8,30.29,SE,134,0.0,1.0,75,0.00,,---,0.00,VWS V14.01,2013-02-23 00:18:00,
2013-02-22 19:23:00,30.7,23.7,30.30,SE,134,0.0,1.0,75,0.00,,---,0.00,VWS V14.01,2013-02-23 00:23:00,
2013-02-22 19:28:00,30.6,23.6,30.31,SE,134,0.0,1.0,75,0.00,,---,0.00,VWS V14.01,2013-02-23 00:28:00,
2013-02-22 19:33:00,30.5,23.9,30.31,SE,134,0.0,0.0,76,0.00,,---,0.00,VWS V14.01,2013-02-23 00:33:00,
2013-02-22 19:38:00,30.5,23.9,30.30,SE,134,0.0,0.0,76,0.00,,---,0.00,VWS V14.01,2013-02-23 00:38:00,
2013-02-22 19:43:00,30.4,23.8,30.30,SE,134,0.0,0.0,76,0.00,,---,0.00,VWS V14.01,2013-02-23 00:43:00,
2013-02-22 19:48:00,30.4,24.1,30.30,SE,134,0.0,1.0,77,0.00,,---,0.00,VWS V14.01,2013-02-23 00:48:00,
2013-02-22 19:53:00,30.5,24.2,30.30,SE,134,0.0,1.0,77,0.00,,---,0.00,VWS V14.01,2013-02-23 00:53:00,
2013-02-22 19:58:00,30.5,24.2,30.30,SE,134,0.0,1.0,77,0.00,,---,0.00,VWS V14.01,2013-02-23 00:58:00,
2013-02-22 20:03:00,30.6,24.3,30.30,SE,134,0.0,1.0,77,0.00,,---,0.00,VWS V14.01,2013-02-23 01:03:00,
2013-02-22 20:08:00,30.5,24.2,30.29,SE,134,0.0,1.0,77,0.00,,---,0.00,VWS V14.01,2013-02-23 01:08:00,
2013-02-22 20:13:00,30.5,24.2,30.30,SE,134,0.0,1.0,77,0.00,,---,0.00,VWS V14.01,2013-02-23 01:13:00,
2013-02-22 20:18:00,30.5,24.2,30.30,SE,134,0.0,1.0,77,0.00,,---,0.00,VWS V14.01,2013-02-23 01:18:00,
2013-02-22 20:23:00,30.5,24.2,30.30,SE,134,0.0,1.0,77,0.00,,---,0.00,VWS V14.01,2013-02-23 01:23:00,
2013-02-22 20:28:00,30.5,24.5,30.30,SE,134,0.0,1.0,78,0.00,,---,0.00,VWS V14.01,2013-02-23 01:28:00,
2013-02-22 20:33:00,30.4,24.4,30.30,SE,134,0.0,0.0,78,0.00,,---,0.00,VWS V14.01,2013-02-23 01:33:00,
2013-02-22 20:38:00,30.3,24.3,30.30,SE,134,0.0,0.0,78,0.00,,---,0.00,VWS V14.01,2013-02-23 01:38:00,
2013-02-22 20:43:00,30.3,24.6,30.30,SE,134,0.0,0.0,79,0.00,,---,0.00,VWS V14.01,2013-02-23 01:43:00,
2013-02-22 20:48:00,30.2,24.5,30.30,SE,134,0.0,0.0,79,0.00,,---,0.00,VWS V14.01,2013-02-23 01:48:00,
2013-02-22 20:53:00,30.2,24.5,30.29,SE,134,0.0,1.0,79,0.00,,---,0.00,VWS V14.01,2013-02-23 01:53:00,
2013-02-22 20:58:00,30.2,24.2,30.30,SE,134,0.0,1.0,78,0.00,,---,0.00,VWS V14.01,2013-02-23 01:58:00,
2013-02-22 21:03:00,30.2,24.2,30.30,SE,134,0.0,0.0,78,0.00,,---,0.00,VWS V14.01,2013-02-23 02:03:00,
2013-02-22 21:08:00,30.2,24.5,30.30,SE,134,0.0,0.0,79,0.00,,---,0.00,VWS V14.01,2013-02-23 02:08:00,
2013-02-22 21:13:00,30.2,24.8,30.29,SE,134,0.0,0.0,80,0.00,,---,0.00,VWS V14.01,2013-02-23 02:13:00,
2013-02-22 21:18:00,30.2,24.8,30.29,SE,134,0.0,0.0,80,0.00,,---,0.00,VWS V14.01,2013-02-23 02:18:00,
2013-02-22 21:23:00,30.2,24.8,30.29,SE,134,0.0,0.0,80,0.00,,---,0.00,VWS V14.01,2013-02-23 02:23:00,
2013-02-22 21:28:00,30.2,24.8,30.29,SE,134,0.0,0.0,80,0.00,,---,0.00,VWS V14.01,2013-02-23 02:28:00,
2013-02-22 21:34:00,30.1,24.7,30.29,SE,134,0.0,0.0,80,0.00,,---,0.00,VWS V14.01,2013-02-23 02:34:00,
2013-02-22 21:39:00,30.1,24.7,30.29,SE,134,0.0,0.0,80,0.00,,---,0.00,VWS V14.01,2013-02-23 02:39:00,
2013-02-22 21:44:00,30.1,24.7,30.29,SE,134,0.0,0.0,80,0.00,,---,0.00,VWS V14.01,2013-02-23 02:44:00,
2013-02-22 21:49:00,30.1,25.0,30.30,SE,134,0.0,0.0,81,0.00,,---,0.00,VWS V14.01,2013-02-23 02:49:00,
2013-02-22 21:54:00,30.1,25.0,30.29,SE,134,0.0,0.0,81,0.00,,---,0.00,VWS V14.01,2013-02-23 02:54:00,
2013-02-22 21:59:00,30.1,25.3,30.29,SE,134,0.0,0.0,82,0.00,,---,0.00,VWS V14.01,2013-02-23 02:59:00,
2013-02-22 22:04:00,30.1,25.0,30.29,SE,134,0.0,0.0,81,0.00,,---,0.00,VWS V14.01,2013-02-23 03:04:00,
2013-02-22 22:09:00,30.1,25.0,30.29,SE,134,0.0,0.0,81,0.00,,---,0.00,VWS V14.01,2013-02-23 03:09:00,
2013-02-22 22:14:00,30.1,25.0,30.29,SE,134,0.0,0.0,81,0.00,,---,0.00,VWS V14.01,2013-02-23 03:14:00,
2013-02-22 22:19:00,30.2,25.1,30.29,SE,134,0.0,0.0,81,0.00,,---,0.00,VWS V14.01,2013-02-23 03:19:00,
2013-02-22 22:24:00,30.2,25.1,30.29,SE,134,0.0,0.0,81,0.00,,---,0.00,VWS V14.01,2013-02-23 03:24:00,
2013-02-22 22:29:00,30.2,25.1,30.29,SE,134,0.0,0.0,81,0.00,,---,0.00,VWS V14.01,2013-02-23 03:29:00,
2013-02-22 22:34:00,30.2,25.1,30.29,SE,134,0.0,0.0,81,0.00,,---,0.00,VWS V14.01,2013-02-23 03:34:00,
2013-02-22 22:39:00,30.2,25.1,30.29,SE,134,0.0,0.0,81,0.00,,---,0.00,VWS V14.01,2013-02-23 03:39:00,
2013-02-22 22:44:00,30.2,25.1,30.29,SE,134,0.0,0.0,81,0.00,,---,0.00,VWS V14.01,2013-02-23 03:44:00,
2013-02-22 22:49:00,30.2,25.1,30.29,SE,134,0.0,0.0,81,0.00,,---,0.00,VWS V14.01,2013-02-23 03:49:00,
2013-02-22 22:54:00,30.1,25.0,30.29,SE,134,0.0,0.0,81,0.00,,---,0.00,VWS V14.01,2013-02-23 03:54:00,
2013-02-22 22:59:00,30.0,25.2,30.30,SE,134,0.0,0.0,82,0.00,,---,0.00,VWS V14.01,2013-02-23 03:59:00,
2013-02-22 23:04:00,29.9,25.1,30.29,SE,134,0.0,1.0,82,0.00,,---,0.00,VWS V14.01,2013-02-23 04:04:00,
2013-02-22 23:09:00,29.8,25.0,30.29,SE,134,0.0,1.0,82,0.00,,---,0.00,VWS V14.01,2013-02-23 04:09:00,
2013-02-22 23:14:00,29.7,24.9,30.29,SE,134,1.0,1.0,82,0.00,,---,0.00,VWS V14.01,2013-02-23 04:14:00,
2013-02-22 23:19:00,29.6,24.5,30.28,SE,134,0.0,1.0,81,0.00,,---,0.00,VWS V14.01,2013-02-23 04:19:00,
2013-02-22 23:24:00,29.6,24.5,30.29,SE,134,0.0,1.0,81,0.00,,---,0.00,VWS V14.01,2013-02-23 04:24:00,
2013-02-22 23:29:00,29.7,24.3,30.29,SE,134,0.0,0.0,80,0.00,,---,0.00,VWS V14.01,2013-02-23 04:29:00,
2013-02-22 23:34:00,29.7,24.3,30.29,SE,134,0.0,1.0,80,0.00,,---,0.00,VWS V14.01,2013-02-23 04:34:00,
2013-02-22 23:39:00,29.7,24.3,30.29,SE,134,0.0,1.0,80,0.00,,---,0.00,VWS V14.01,2013-02-23 04:39:00,
2013-02-22 23:44:00,29.7,24.3,30.29,SE,134,0.0,1.0,80,0.00,,---,0.00,VWS V14.01,2013-02-23 04:44:00,
2013-02-22 23:49:00,29.6,24.2,30.28,SE,134,0.0,1.0,80,0.00,,---,0.00,VWS V14.01,2013-02-23 04:49:00,
2013-02-22 23:54:00,29.4,24.3,30.28,SE,134,0.0,1.0,81,0.00,,---,0.00,VWS V14.01,2013-02-23 04:54:00,
2013-02-22 23:59:00,29.3,24.5,30.28,SE,134,0.0,0.0,82,0.00,,---,0.00,VWS V14.01,2013-02-23 04:59:00,